GW0835 Weather Reports


Display with metric or nautical units.
time (UTC)temp
F
wind
direction
speed
MPH
gust
MPH
rain 1hr
in
rain 24hr
in
rain mn
in
humidity
%
barometer
mb
20260505054559 61 243 3.0 7.0 0.00 0.00 0.00 58 1011.4
20260505053105 61 244 2.0 4.0 0.00 0.00 0.00 60 1011.5
20260505051552 60 220 1.0 3.0 0.00 0.00 0.00 65 1011.6
20260505041612 54 0 0.0 0.0 0.00 0.00 0.00 72 1011.3
20260505040059 54 0 0.0 0.0 0.00 0.00 0.00 70 1011.3
20260505034558 54 0 0.0 2.0 0.00 0.00 0.00 70 1011.3
20260505033053 52 0 0.0 3.0 0.00 0.00 0.00 72 1011.2
20260505031606 49 0 1.0 2.0 0.00 0.00 0.00 77 1011.2
20260505030051 48 209 0.0 2.0 0.00 0.00 0.00 78 1011.3
20260505024552 49 0 0.0 2.0 0.00 0.00 0.00 77 1011.2
20260505023057 49 0 0.0 2.0 0.00 0.00 0.00 76 1011.3
20260505021555 50 0 1.0 2.0 0.00 0.00 0.00 74 1011.5
20260505020053 50 0 1.0 3.0 0.00 0.00 0.00 73 1011.5
20260505014549 51 80 1.0 3.0 0.00 0.00 0.00 73 1011.6
20260505013059 50 80 0.0 0.0 0.00 0.00 0.00 74 1011.7
20260505011556 51 0 0.0 0.0 0.00 0.00 0.00 73 1011.7
20260505010052 51 0 0.0 3.0 0.00 0.00 0.00 73 1011.6
20260505004549 51 80 1.0 3.0 0.00 0.00 0.00 73 1011.7
20260505003055 52 80 1.0 2.0 0.00 0.00 0.00 73 1011.7
20260505001554 53 80 1.0 2.0 0.00 0.00 0.00 72 1011.8
20260505000058 53 0 0.0 2.0 0.00 0.00 0.00 70 1012.0
20260504234602 54 80 1.0 2.0 0.00 0.00 0.00 68 1012.1
20260504233054 55 158 1.0 2.0 0.00 0.00 0.00 67 1012.2
20260504231559 55 0 0.0 5.0 0.00 0.00 0.00 65 1012.4
20260504230058 54 155 3.0 6.0 0.00 0.00 0.00 67 1012.4
20260504224551 53 316 2.0 8.0 0.00 0.00 0.00 69 1012.4
20260504223054 55 72 1.0 3.0 0.00 0.00 0.00 67 1012.1
20260504221559 55 72 1.0 2.0 0.00 0.00 0.00 65 1012.1
20260504220050 56 72 1.0 3.0 0.00 0.00 0.00 63 1012.1
20260504214548 55 69 2.0 3.0 0.00 0.00 0.00 65 1012.2
20260504213051 55 175 2.0 3.0 0.00 0.00 0.00 65 1012.3
20260504211553 56 175 0.0 3.0 0.00 0.00 0.00 65 1012.2
20260504210107 56 175 1.0 3.0 0.00 0.00 0.00 63 1012.4
20260504204559 57 175 1.0 3.0 0.00 0.00 0.00 63 1012.3
20260504203050 57 175 1.0 3.0 0.00 0.00 0.00 64 1012.3
20260504201556 58 175 1.0 2.0 0.00 0.00 0.00 63 1012.2
20260504200057 59 0 0.0 0.0 0.00 0.00 0.00 60 1012.2
20260504194606 61 0 1.0 2.0 0.00 0.00 0.00 58 1012.2
20260504193048 62 0 0.0 2.0 0.00 0.00 0.00 53 1012.2
20260504191551 64 0 0.0 0.0 0.00 0.00 0.00 51 1012.1
20260504190104 66 0 0.0 2.0 0.00 0.00 0.00 49 1012.1
20260504184556 68 0 0.0 2.0 0.00 0.00 0.00 43 1012.0
20260504183047 70 0 0.0 3.0 0.00 0.00 0.00 38 1011.9
20260504181553 71 0 1.0 2.0 0.00 0.00 0.00 38 1011.7
20260504180122 72 226 2.0 3.0 0.00 0.00 0.00 37 1011.7
20260504174556 74 231 2.0 5.0 0.00 0.00 0.00 35 1011.8
20260504173113 75 234 3.0 6.0 0.00 0.00 0.00 36 1011.7
20260504171556 76 244 4.0 7.0 0.00 0.00 0.00 35 1011.5
20260504140109 79 247 8.0 15.0 0.00 0.00 0.00 29 1012.3
20260504120112 78 198 11.0 20.0 0.00 0.00 0.00 32 1013.2
20260504081552 71 238 10.0 19.0 0.00 0.00 0.00 37 1015.0